| time (UTC) | temp F | wind direction | speed MPH | gust MPH | rain 1hr in | rain 24hr in | rain mn in | humidity % | barometer mb |
| 20260831082542 | 72 | 157 | 5.0 | 12.0 | 0.00 | 0.00 | 0.00 | 80 | 1016.4 |
| 20260831082041 | 72 | 163 | 3.0 | 10.0 | 0.00 | 0.00 | 0.00 | 80 | 1016.4 |
| 20260831081540 | 72 | 127 | 4.0 | 10.0 | 0.00 | 0.00 | 0.00 | 81 | 1016.4 |
| 20260831081040 | 72 | 196 | 2.0 | 10.0 | 0.00 | 0.00 | 0.00 | 81 | 1016.4 |
| 20260831080539 | 72 | 190 | 3.0 | 14.0 | 0.00 | 0.00 | 0.00 | 81 | 1016.5 |
| 20260831080039 | 72 | 167 | 4.0 | 14.0 | 0.00 | 0.00 | 0.00 | 81 | 1016.5 |
| 20260831075540 | 72 | 173 | 3.0 | 8.0 | 0.00 | 0.00 | 0.00 | 82 | 1016.6 |
| 20260831075038 | 72 | 156 | 3.0 | 11.0 | 0.00 | 0.00 | 0.00 | 82 | 1016.6 |
| 20260831074541 | 71 | 84 | 2.0 | 11.0 | 0.00 | 0.00 | 0.00 | 82 | 1016.6 |
| 20260831074037 | 71 | 108 | 2.0 | 11.0 | 0.00 | 0.00 | 0.00 | 82 | 1016.5 |
| 20260831073535 | 71 | 181 | 4.0 | 10.0 | 0.00 | 0.00 | 0.00 | 83 | 1016.5 |
| 20260831073046 | 71 | 232 | 5.0 | 10.0 | 0.00 | 0.00 | 0.00 | 83 | 1016.5 |
| 20260831072534 | 71 | 41 | 4.0 | 11.0 | 0.00 | 0.00 | 0.00 | 84 | 1016.6 |
| 20260831072037 | 71 | 130 | 3.0 | 11.0 | 0.00 | 0.00 | 0.00 | 84 | 1016.7 |
| 20260831071533 | 71 | 186 | 4.0 | 9.0 | 0.00 | 0.00 | 0.00 | 84 | 1016.8 |
| 20260831071033 | 71 | 127 | 5.0 | 11.0 | 0.00 | 0.00 | 0.00 | 85 | 1016.7 |
| 20260831070534 | 71 | 142 | 5.0 | 13.0 | 0.00 | 0.00 | 0.00 | 85 | 1016.7 |
| 20260831070039 | 71 | 176 | 4.0 | 12.0 | 0.00 | 0.00 | 0.00 | 85 | 1016.7 |
| 20260831065533 | 71 | 137 | 4.0 | 11.0 | 0.00 | 0.00 | 0.00 | 86 | 1016.7 |
| 20260831065032 | 71 | 135 | 4.0 | 11.0 | 0.00 | 0.00 | 0.00 | 86 | 1016.8 |
| 20260831064632 | 71 | 224 | 4.0 | 9.0 | 0.00 | 0.00 | 0.00 | 86 | 1016.8 |
| 20260831064031 | 70 | 164 | 3.0 | 9.0 | 0.00 | 0.00 | 0.00 | 86 | 1016.9 |
| 20260831063530 | 70 | 168 | 4.0 | 9.0 | 0.00 | 0.00 | 0.00 | 87 | 1016.9 |
| 20260831063030 | 70 | 130 | 4.0 | 12.0 | 0.00 | 0.00 | 0.00 | 87 | 1016.9 |
| 20260831062534 | 70 | 137 | 4.0 | 12.0 | 0.00 | 0.00 | 0.00 | 87 | 1017.0 |
| 20260831062030 | 70 | 186 | 4.0 | 10.0 | 0.00 | 0.00 | 0.00 | 87 | 1017.0 |
| 20260831061535 | 70 | 182 | 4.0 | 14.0 | 0.00 | 0.00 | 0.00 | 87 | 1017.0 |
| 20260831061030 | 70 | 153 | 5.0 | 14.0 | 0.00 | 0.00 | 0.00 | 87 | 1017.0 |
| 20260831060531 | 70 | 196 | 4.0 | 15.0 | 0.00 | 0.00 | 0.00 | 87 | 1016.9 |
| 20260831060028 | 70 | 170 | 4.0 | 15.0 | 0.00 | 0.00 | 0.00 | 87 | 1016.8 |
| 20260831055528 | 70 | 143 | 4.0 | 14.0 | 0.00 | 0.00 | 0.00 | 88 | 1016.8 |
| 20260831055029 | 70 | 207 | 5.0 | 10.0 | 0.00 | 0.00 | 0.00 | 88 | 1016.9 |
| 20260831054529 | 70 | 201 | 5.0 | 11.0 | 0.00 | 0.00 | 0.00 | 87 | 1017.1 |
| 20260831054026 | 70 | 229 | 3.0 | 11.0 | 0.00 | 0.00 | 0.00 | 87 | 1017.2 |
| 20260831053526 | 70 | 236 | 3.0 | 12.0 | 0.00 | 0.00 | 0.00 | 87 | 1017.2 |
| 20260831053027 | 70 | 178 | 5.0 | 12.0 | 0.00 | 0.00 | 0.00 | 87 | 1017.3 |
| 20260831052523 | 70 | 309 | 4.0 | 12.0 | 0.00 | 0.00 | 0.00 | 87 | 1017.2 |
| 20260831052025 | 70 | 131 | 4.0 | 14.0 | 0.00 | 0.00 | 0.00 | 87 | 1017.2 |
| 20260831051523 | 70 | 151 | 8.0 | 14.0 | 0.00 | 0.00 | 0.00 | 87 | 1017.1 |
| 20260831051019 | 70 | 130 | 8.0 | 14.0 | 0.00 | 0.00 | 0.00 | 87 | 1017.2 |
| 20260831050518 | 71 | 144 | 6.0 | 12.0 | 0.00 | 0.00 | 0.00 | 87 | 1017.2 |
| 20260831050021 | 71 | 125 | 6.0 | 11.0 | 0.00 | 0.00 | 0.00 | 86 | 1017.2 |
| 20260831045517 | 71 | 136 | 5.0 | 12.0 | 0.00 | 0.00 | 0.00 | 86 | 1017.3 |
| 20260831045018 | 71 | 138 | 4.0 | 13.0 | 0.00 | 0.00 | 0.00 | 86 | 1017.4 |
| 20260831044516 | 71 | 155 | 5.0 | 13.0 | 0.00 | 0.00 | 0.00 | 86 | 1017.4 |
| 20260831044014 | 71 | 130 | 3.0 | 12.0 | 0.00 | 0.00 | 0.00 | 86 | 1017.5 |
| 20260831043511 | 71 | 130 | 3.0 | 10.0 | 0.00 | 0.00 | 0.00 | 86 | 1017.5 |
| 20260831043011 | 71 | 116 | 3.0 | 9.0 | 0.00 | 0.00 | 0.00 | 86 | 1017.6 |
| 20260831042511 | 71 | 110 | 4.0 | 10.0 | 0.00 | 0.00 | 0.00 | 86 | 1017.6 |
| 20260831042009 | 71 | 180 | 3.0 | 12.0 | 0.00 | 0.00 | 0.00 | 86 | 1017.7 |
| 20260831041513 | 71 | 156 | 5.0 | 12.0 | 0.00 | 0.00 | 0.00 | 86 | 1017.6 |
| 20260831041010 | 71 | 143 | 4.0 | 9.0 | 0.00 | 0.00 | 0.00 | 85 | 1017.5 |
| 20260831040505 | 71 | 88 | 3.0 | 9.0 | 0.00 | 0.00 | 0.00 | 85 | 1017.6 |
| 20260831040004 | 71 | 118 | 3.0 | 8.0 | 0.00 | 0.00 | 0.00 | 85 | 1017.6 |
| 20260831035505 | 71 | 102 | 2.0 | 7.0 | 0.00 | 0.00 | 0.00 | 85 | 1017.5 |
| 20260831035004 | 71 | 143 | 3.0 | 8.0 | 0.00 | 0.00 | 0.00 | 85 | 1017.4 |
| 20260831034504 | 71 | 77 | 3.0 | 11.0 | 0.00 | 0.00 | 0.00 | 86 | 1017.4 |
| 20260831034004 | 71 | 98 | 4.0 | 12.0 | 0.00 | 0.00 | 0.00 | 86 | 1017.4 |
| 20260831033504 | 71 | 168 | 5.0 | 12.0 | 0.00 | 0.00 | 0.00 | 86 | 1017.5 |
| 20260831033010 | 71 | 160 | 5.0 | 11.0 | 0.00 | 0.00 | 0.00 | 86 | 1017.4 |
| 20260831032504 | 71 | 105 | 5.0 | 12.0 | 0.00 | 0.00 | 0.00 | 85 | 1017.3 |
| 20260831032003 | 71 | 166 | 3.0 | 12.0 | 0.00 | 0.00 | 0.00 | 86 | 1017.4 |
| 20260831031502 | 71 | 157 | 6.0 | 11.0 | 0.00 | 0.00 | 0.00 | 85 | 1017.4 |
| 20260831031003 | 71 | 158 | 6.0 | 13.0 | 0.00 | 0.00 | 0.00 | 85 | 1017.6 |
| 20260831030502 | 71 | 163 | 5.0 | 13.0 | 0.00 | 0.00 | 0.00 | 85 | 1017.5 |
| 20260831030003 | 71 | 146 | 6.0 | 12.0 | 0.00 | 0.00 | 0.00 | 85 | 1017.6 |
| 20260831025503 | 71 | 146 | 5.0 | 11.0 | 0.00 | 0.00 | 0.00 | 85 | 1017.8 |
| 20260831025003 | 71 | 186 | 4.0 | 10.0 | 0.00 | 0.00 | 0.00 | 85 | 1017.9 |
| 20260831024502 | 71 | 130 | 4.0 | 9.0 | 0.00 | 0.00 | 0.00 | 85 | 1018.0 |
| 20260831024002 | 71 | 125 | 3.0 | 9.0 | 0.00 | 0.00 | 0.00 | 85 | 1018.1 |
| 20260831023501 | 71 | 151 | 3.0 | 8.0 | 0.00 | 0.00 | 0.00 | 84 | 1018.2 |
| 20260831023001 | 71 | 160 | 3.0 | 10.0 | 0.00 | 0.00 | 0.00 | 84 | 1018.2 |
| 20260831022502 | 71 | 143 | 4.0 | 10.0 | 0.00 | 0.00 | 0.00 | 84 | 1018.2 |
| 20260831022000 | 71 | 122 | 4.0 | 8.0 | 0.00 | 0.00 | 0.00 | 84 | 1018.3 |
| 20260831021600 | 71 | 119 | 3.0 | 9.0 | 0.00 | 0.00 | 0.00 | 84 | 1018.2 |
| 20260831021100 | 71 | 112 | 4.0 | 9.0 | 0.00 | 0.00 | 0.00 | 84 | 1018.2 |
| 20260831020601 | 71 | 150 | 3.0 | 8.0 | 0.00 | 0.00 | 0.00 | 83 | 1018.2 |
| 20260831020118 | 71 | 112 | 2.0 | 6.0 | 0.00 | 0.00 | 0.00 | 83 | 1018.3 |
| 20260831015602 | 71 | 103 | 2.0 | 6.0 | 0.00 | 0.00 | 0.00 | 83 | 1018.4 |
| 20260831015100 | 71 | 137 | 3.0 | 8.0 | 0.00 | 0.00 | 0.00 | 83 | 1018.4 |
| 20260831014610 | 71 | 154 | 3.0 | 9.0 | 0.00 | 0.00 | 0.00 | 83 | 1018.5 |
| 20260831014059 | 72 | 125 | 3.0 | 9.0 | 0.00 | 0.00 | 0.00 | 83 | 1018.4 |
| 20260831013600 | 72 | 140 | 5.0 | 9.0 | 0.00 | 0.00 | 0.00 | 83 | 1018.3 |
| 20260831013058 | 72 | 147 | 4.0 | 8.0 | 0.00 | 0.00 | 0.00 | 83 | 1018.4 |
| 20260831012558 | 72 | 126 | 2.0 | 5.0 | 0.00 | 0.00 | 0.00 | 83 | 1018.5 |
| 20260831012058 | 72 | 119 | 2.0 | 3.0 | 0.00 | 0.00 | 0.00 | 83 | 1018.6 |
| 20260831011607 | 72 | 100 | 1.0 | 3.0 | 0.00 | 0.00 | 0.00 | 83 | 1018.6 |
| 20260831011057 | 72 | 192 | 2.0 | 4.0 | 0.00 | 0.00 | 0.00 | 83 | 1018.6 |
| 20260831010557 | 72 | 130 | 1.0 | 4.0 | 0.00 | 0.00 | 0.00 | 83 | 1018.5 |
| 20260831010057 | 72 | 103 | 2.0 | 5.0 | 0.00 | 0.00 | 0.00 | 83 | 1018.5 |
| 20260831005558 | 72 | 112 | 2.0 | 5.0 | 0.00 | 0.00 | 0.00 | 82 | 1018.4 |
| 20260831005057 | 72 | 125 | 2.0 | 4.0 | 0.00 | 0.00 | 0.00 | 82 | 1018.5 |
| 20260831004557 | 72 | 112 | 1.0 | 4.0 | 0.00 | 0.00 | 0.00 | 82 | 1018.5 |
| 20260831004057 | 72 | 84 | 2.0 | 4.0 | 0.00 | 0.00 | 0.00 | 82 | 1018.4 |
| 20260831003555 | 72 | 84 | 0.0 | 2.0 | 0.00 | 0.00 | 0.00 | 81 | 1018.4 |
| 20260831003055 | 73 | 84 | 1.0 | 2.0 | 0.00 | 0.00 | 0.00 | 81 | 1018.4 |
| 20260831002554 | 73 | 112 | 0.0 | 2.0 | 0.00 | 0.00 | 0.00 | 80 | 1018.4 |
| 20260831002058 | 73 | 355 | 0.0 | 1.0 | 0.00 | 0.00 | 0.00 | 80 | 1018.3 |
| 20260831001557 | 73 | 41 | 0.0 | 1.0 | 0.00 | 0.00 | 0.00 | 80 | 1018.3 |
| 20260831001054 | 73 | 41 | 0.0 | 2.0 | 0.00 | 0.00 | 0.00 | 80 | 1018.2 |
| 20260831000554 | 73 | 41 | 0.0 | 2.0 | 0.00 | 0.00 | 0.00 | 80 | 1018.2 |
| 20260831000054 | 73 | 218 | 0.0 | 2.0 | 0.00 | 0.00 | 0.00 | 80 | 1018.0 |
| 20260830235553 | 73 | 173 | 0.0 | 2.0 | 0.00 | 0.00 | 0.00 | 80 | 1018.0 |
| 20260830235057 | 73 | 229 | 0.0 | 2.0 | 0.00 | 0.00 | 0.00 | 80 | 1017.9 |
| 20260830234609 | 73 | 236 | 0.0 | 2.0 | 0.00 | 0.00 | 0.00 | 79 | 1017.8 |
| 20260830234053 | 74 | 173 | 0.0 | 2.0 | 0.00 | 0.00 | 0.00 | 79 | 1017.8 |
| 20260830233552 | 74 | 173 | 0.0 | 3.0 | 0.00 | 0.00 | 0.00 | 79 | 1017.7 |
| 20260830233052 | 74 | 23 | 1.0 | 3.0 | 0.00 | 0.00 | 0.00 | 79 | 1017.6 |
| 20260830232552 | 74 | 41 | 1.0 | 3.0 | 0.00 | 0.00 | 0.00 | 79 | 1017.5 |
| 20260830232052 | 74 | 15 | 1.0 | 4.0 | 0.00 | 0.00 | 0.00 | 79 | 1017.5 |
| 20260830231554 | 74 | 30 | 1.0 | 4.0 | 0.00 | 0.00 | 0.00 | 78 | 1017.4 |
| 20260830231052 | 74 | 108 | 1.0 | 3.0 | 0.00 | 0.00 | 0.00 | 78 | 1017.4 |
| 20260830230551 | 74 | 339 | 1.0 | 4.0 | 0.00 | 0.00 | 0.00 | 78 | 1017.3 |
| 20260830230052 | 74 | 41 | 2.0 | 5.0 | 0.00 | 0.00 | 0.00 | 77 | 1017.3 |
| 20260830225549 | 74 | 15 | 3.0 | 5.0 | 0.00 | 0.00 | 0.00 | 77 | 1017.3 |
| 20260830225049 | 74 | 344 | 2.0 | 4.0 | 0.00 | 0.00 | 0.00 | 77 | 1017.4 |
| 20260830224550 | 74 | 326 | 1.0 | 5.0 | 0.00 | 0.00 | 0.00 | 77 | 1017.2 |
| 20260830224049 | 74 | 356 | 0.0 | 5.0 | 0.00 | 0.00 | 0.00 | 76 | 1017.0 |
| 20260830223548 | 74 | 100 | 1.0 | 3.0 | 0.00 | 0.00 | 0.00 | 76 | 1017.0 |
| 20260830223046 | 74 | 100 | 1.0 | 4.0 | 0.00 | 0.00 | 0.00 | 76 | 1016.9 |
| 20260830222547 | 75 | 51 | 2.0 | 7.0 | 0.00 | 0.00 | 0.00 | 76 | 1016.8 |
| 20260830222049 | 75 | 93 | 3.0 | 7.0 | 0.00 | 0.00 | 0.00 | 76 | 1016.7 |
| 20260830221545 | 75 | 41 | 2.0 | 7.0 | 0.00 | 0.00 | 0.00 | 75 | 1016.6 |
| 20260830221046 | 75 | 84 | 1.0 | 7.0 | 0.00 | 0.00 | 0.00 | 76 | 1016.5 |
| 20260830220544 | 75 | 192 | 2.0 | 9.0 | 0.00 | 0.00 | 0.00 | 76 | 1016.4 |
| 20260830220044 | 75 | 228 | 2.0 | 9.0 | 0.00 | 0.00 | 0.00 | 75 | 1016.5 |
| 20260830215545 | 75 | 166 | 4.0 | 11.0 | 0.00 | 0.00 | 0.00 | 75 | 1016.5 |
| 20260830215044 | 75 | 183 | 5.0 | 12.0 | 0.00 | 0.00 | 0.00 | 76 | 1016.2 |
| 20260830214543 | 75 | 23 | 3.0 | 13.0 | 0.00 | 0.00 | 0.00 | 76 | 1016.2 |
| 20260830214044 | 75 | 140 | 5.0 | 13.0 | 0.00 | 0.00 | 0.00 | 76 | 1016.2 |
| 20260830213541 | 75 | 145 | 4.0 | 10.0 | 0.00 | 0.00 | 0.00 | 75 | 1016.3 |
| 20260830213040 | 75 | 224 | 5.0 | 10.0 | 0.00 | 0.00 | 0.00 | 75 | 1016.7 |
| 20260830212539 | 75 | 204 | 4.0 | 9.0 | 0.00 | 0.00 | 0.00 | 76 | 1016.7 |
| 20260830212038 | 75 | 125 | 4.0 | 8.0 | 0.00 | 0.00 | 0.00 | 76 | 1016.7 |
| 20260830211538 | 75 | 108 | 4.0 | 12.0 | 0.00 | 0.00 | 0.00 | 76 | 1016.8 |
| 20260830211037 | 75 | 173 | 5.0 | 12.0 | 0.00 | 0.00 | 0.00 | 76 | 1016.8 |
| 20260830210536 | 75 | 183 | 3.0 | 9.0 | 0.00 | 0.00 | 0.00 | 76 | 1017.0 |
| 20260830210034 | 74 | 188 | 3.0 | 9.0 | 0.00 | 0.00 | 0.00 | 75 | 1017.1 |
| 20260830205534 | 74 | 179 | 3.0 | 9.0 | 0.00 | 0.00 | 0.00 | 75 | 1017.2 |
| 20260830205038 | 74 | 180 | 3.0 | 9.0 | 0.00 | 0.00 | 0.00 | 75 | 1017.1 |
| 20260830204534 | 74 | 173 | 4.0 | 9.0 | 0.00 | 0.00 | 0.00 | 75 | 1017.1 |
| 20260830204033 | 74 | 240 | 3.0 | 8.0 | 0.00 | 0.00 | 0.00 | 75 | 1017.2 |
| 20260830203531 | 74 | 192 | 2.0 | 6.0 | 0.00 | 0.00 | 0.00 | 75 | 1017.2 |
| 20260830203031 | 74 | 264 | 3.0 | 6.0 | 0.00 | 0.00 | 0.00 | 76 | 1017.1 |
| 20260830202533 | 74 | 183 | 2.0 | 8.0 | 0.00 | 0.00 | 0.00 | 76 | 1017.1 |
| 20260830202030 | 74 | 297 | 1.0 | 10.0 | 0.00 | 0.00 | 0.00 | 76 | 1017.1 |
| 20260830201600 | 74 | 144 | 3.0 | 14.0 | 0.00 | 0.00 | 0.00 | 76 | 1017.0 |
| 20260830201029 | 74 | 152 | 7.0 | 14.0 | 0.00 | 0.00 | 0.00 | 77 | 1017.0 |
| 20260830200530 | 74 | 108 | 4.0 | 9.0 | 0.00 | 0.00 | 0.00 | 76 | 1017.0 |
| 20260830200028 | 74 | 309 | 3.0 | 12.0 | 0.00 | 0.00 | 0.00 | 76 | 1017.0 |
| 20260830195528 | 74 | 150 | 4.0 | 12.0 | 0.00 | 0.00 | 0.00 | 75 | 1017.2 |
| 20260830195026 | 74 | 206 | 4.0 | 12.0 | 0.00 | 0.00 | 0.00 | 75 | 1017.3 |
| 20260830194525 | 74 | 188 | 3.0 | 10.0 | 0.00 | 0.00 | 0.00 | 74 | 1017.4 |
| 20260830194024 | 74 | 192 | 5.0 | 10.0 | 0.00 | 0.00 | 0.00 | 74 | 1017.6 |
| 20260830193524 | 74 | 181 | 3.0 | 10.0 | 0.00 | 0.00 | 0.00 | 73 | 1017.8 |
| 20260830193021 | 74 | 205 | 5.0 | 12.0 | 0.00 | 0.00 | 0.00 | 73 | 1017.8 |
| 20260830192522 | 74 | 188 | 3.0 | 12.0 | 0.00 | 0.00 | 0.00 | 74 | 1017.8 |
| 20260830192020 | 74 | 203 | 4.0 | 11.0 | 0.00 | 0.00 | 0.00 | 74 | 1017.8 |
| 20260830191522 | 74 | 130 | 4.0 | 8.0 | 0.00 | 0.00 | 0.00 | 74 | 1018.0 |
| 20260830191024 | 75 | 152 | 3.0 | 9.0 | 0.00 | 0.00 | 0.00 | 74 | 1018.1 |
| 20260830190518 | 75 | 179 | 2.0 | 8.0 | 0.00 | 0.00 | 0.00 | 74 | 1018.2 |
| 20260830190022 | 75 | 205 | 4.0 | 10.0 | 0.00 | 0.00 | 0.00 | 74 | 1018.3 |
| 20260830185518 | 75 | 233 | 4.0 | 10.0 | 0.00 | 0.00 | 0.00 | 72 | 1018.4 |
| 20260830185017 | 75 | 214 | 4.0 | 10.0 | 0.00 | 0.00 | 0.00 | 72 | 1018.6 |
| 20260830184517 | 75 | 216 | 6.0 | 10.0 | 0.00 | 0.00 | 0.00 | 72 | 1018.6 |
| 20260830184016 | 76 | 185 | 4.0 | 11.0 | 0.00 | 0.00 | 0.00 | 72 | 1018.7 |
| 20260830183516 | 76 | 191 | 3.0 | 9.0 | 0.00 | 0.00 | 0.00 | 71 | 1018.8 |
| 20260830183015 | 76 | 295 | 1.0 | 11.0 | 0.00 | 0.00 | 0.00 | 71 | 1018.9 |
| 20260830182515 | 76 | 239 | 3.0 | 13.0 | 0.00 | 0.00 | 0.00 | 72 | 1018.9 |
| 20260830182014 | 75 | 206 | 6.0 | 13.0 | 0.00 | 0.00 | 0.00 | 73 | 1018.9 |
| 20260830181514 | 75 | 84 | 3.0 | 7.0 | 0.00 | 0.00 | 0.00 | 75 | 1019.0 |
| 20260830181012 | 74 | 344 | 2.0 | 7.0 | 0.00 | 0.00 | 0.00 | 75 | 1019.0 |
| 20260830180510 | 74 | 356 | 2.0 | 5.0 | 0.00 | 0.00 | 0.00 | 76 | 1019.0 |
| 20260830180010 | 74 | 356 | 1.0 | 4.0 | 0.00 | 0.00 | 0.00 | 77 | 1019.0 |
| 20260830175508 | 73 | 23 | 0.0 | 5.0 | 0.00 | 0.00 | 0.00 | 77 | 1019.1 |
| 20260830175007 | 73 | 218 | 2.0 | 5.0 | 0.00 | 0.00 | 0.00 | 78 | 1019.1 |
| 20260830174507 | 73 | 41 | 1.0 | 5.0 | 0.00 | 0.00 | 0.00 | 78 | 1019.2 |
| 20260830174005 | 72 | 330 | 2.0 | 4.0 | 0.00 | 0.00 | 0.00 | 78 | 1019.3 |
| 20260830173505 | 72 | 335 | 0.0 | 5.0 | 0.00 | 0.00 | 0.00 | 78 | 1019.2 |
| 20260830173004 | 72 | 264 | 1.0 | 5.0 | 0.00 | 0.00 | 0.00 | 77 | 1019.3 |
| 20260830172504 | 72 | 356 | 1.0 | 8.0 | 0.00 | 0.00 | 0.00 | 77 | 1019.3 |
| 20260830172104 | 72 | 112 | 2.0 | 8.0 | 0.00 | 0.00 | 0.00 | 77 | 1019.3 |
| 20260830171503 | 72 | 323 | 2.0 | 8.0 | 0.00 | 0.00 | 0.00 | 77 | 1019.4 |
| 20260830171004 | 73 | 248 | 1.0 | 8.0 | 0.00 | 0.00 | 0.00 | 77 | 1019.5 |
| 20260830170504 | 73 | 309 | 3.0 | 9.0 | 0.00 | 0.00 | 0.00 | 77 | 1019.5 |
| 20260830170003 | 73 | 269 | 1.0 | 11.0 | 0.00 | 0.00 | 0.00 | 77 | 1019.6 |
| 20260830165506 | 73 | 236 | 5.0 | 12.0 | 0.00 | 0.00 | 0.00 | 77 | 1019.6 |
| 20260830165004 | 72 | 241 | 5.0 | 13.0 | 0.00 | 0.00 | 0.00 | 78 | 1019.7 |
| 20260830164501 | 72 | 248 | 5.0 | 13.0 | 0.00 | 0.00 | 0.00 | 78 | 1019.9 |
| 20260830164101 | 72 | 223 | 3.0 | 12.0 | 0.00 | 0.00 | 0.00 | 77 | 1019.9 |
| 20260830163600 | 72 | 223 | 3.0 | 11.0 | 0.00 | 0.00 | 0.00 | 77 | 1020.0 |
| 20260830163102 | 72 | 260 | 5.0 | 11.0 | 0.00 | 0.00 | 0.00 | 78 | 1020.0 |
| 20260830162600 | 72 | 288 | 4.0 | 10.0 | 0.00 | 0.00 | 0.00 | 78 | 1020.0 |
| 20260830162058 | 72 | 51 | 4.0 | 11.0 | 0.00 | 0.00 | 0.00 | 79 | 1020.0 |
| 20260830161558 | 72 | 236 | 4.0 | 11.0 | 0.00 | 0.00 | 0.00 | 79 | 1019.9 |
| 20260830161056 | 71 | 271 | 4.0 | 10.0 | 0.00 | 0.00 | 0.00 | 79 | 1019.8 |
| 20260830160556 | 71 | 309 | 4.0 | 11.0 | 0.00 | 0.00 | 0.00 | 79 | 1019.9 |
| 20260830160055 | 72 | 269 | 4.0 | 10.0 | 0.00 | 0.00 | 0.00 | 79 | 1019.8 |
| 20260830155554 | 72 | 250 | 4.0 | 10.0 | 0.00 | 0.00 | 0.00 | 78 | 1019.9 |
| 20260830155054 | 72 | 218 | 2.0 | 9.0 | 0.00 | 0.00 | 0.00 | 77 | 1019.9 |
| 20260830154553 | 72 | 253 | 2.0 | 9.0 | 0.00 | 0.00 | 0.00 | 77 | 1019.9 |
| 20260830154052 | 72 | 309 | 1.0 | 11.0 | 0.00 | 0.00 | 0.00 | 76 | 1019.9 |
| 20260830153550 | 72 | 295 | 3.0 | 13.0 | 0.00 | 0.00 | 0.00 | 76 | 1019.9 |
| 20260830153050 | 73 | 271 | 3.0 | 10.0 | 0.00 | 0.00 | 0.00 | 75 | 1019.9 |
| 20260830152548 | 73 | 257 | 3.0 | 10.0 | 0.00 | 0.00 | 0.00 | 74 | 1019.8 |
| 20260830152047 | 73 | 255 | 3.0 | 8.0 | 0.00 | 0.00 | 0.00 | 74 | 1019.7 |
| 20260830151550 | 73 | 264 | 3.0 | 8.0 | 0.00 | 0.00 | 0.00 | 74 | 1019.7 |
| 20260830151046 | 73 | 218 | 2.0 | 5.0 | 0.00 | 0.00 | 0.00 | 74 | 1019.7 |
| 20260830150548 | 73 | 281 | 2.0 | 5.0 | 0.00 | 0.00 | 0.00 | 74 | 1019.6 |
| 20260830150045 | 73 | 208 | 1.0 | 4.0 | 0.00 | 0.00 | 0.00 | 74 | 1019.5 |
| 20260830145543 | 72 | 112 | 1.0 | 6.0 | 0.00 | 0.00 | 0.00 | 74 | 1019.5 |
| 20260830145043 | 72 | 232 | 2.0 | 7.0 | 0.00 | 0.00 | 0.00 | 74 | 1019.3 |
| 20260830144545 | 72 | 264 | 2.0 | 5.0 | 0.00 | 0.00 | 0.00 | 74 | 1019.3 |
| 20260830144045 | 72 | 205 | 2.0 | 7.0 | 0.00 | 0.00 | 0.00 | 74 | 1019.2 |
| 20260830143541 | 72 | 309 | 2.0 | 8.0 | 0.00 | 0.00 | 0.00 | 74 | 1019.2 |
| 20260830143042 | 72 | 234 | 4.0 | 8.0 | 0.00 | 0.00 | 0.00 | 75 | 1019.2 |
| 20260830142543 | 72 | 253 | 3.0 | 8.0 | 0.00 | 0.00 | 0.00 | 75 | 1019.2 |
| 20260830142039 | 72 | 264 | 4.0 | 8.0 | 0.00 | 0.00 | 0.00 | 74 | 1019.1 |
| 20260830141538 | 72 | 233 | 3.0 | 8.0 | 0.00 | 0.00 | 0.00 | 74 | 1019.1 |
| 20260830141039 | 72 | 183 | 4.0 | 8.0 | 0.00 | 0.00 | 0.00 | 73 | 1019.2 |
| 20260830140539 | 72 | 230 | 4.0 | 7.0 | 0.00 | 0.00 | 0.00 | 73 | 1019.2 |
| 20260830140037 | 72 | 253 | 3.0 | 10.0 | 0.00 | 0.00 | 0.00 | 73 | 1019.2 |
| 20260830135536 | 72 | 278 | 5.0 | 10.0 | 0.00 | 0.00 | 0.00 | 72 | 1019.0 |
| 20260830135035 | 72 | 239 | 4.0 | 9.0 | 0.00 | 0.00 | 0.00 | 71 | 1018.8 |
| 20260830134536 | 72 | 199 | 4.0 | 9.0 | 0.00 | 0.00 | 0.00 | 71 | 1018.8 |
| 20260830134035 | 72 | 209 | 5.0 | 10.0 | 0.00 | 0.00 | 0.00 | 71 | 1018.7 |
| 20260830133534 | 72 | 197 | 4.0 | 14.0 | 0.00 | 0.00 | 0.00 | 71 | 1018.6 |
| 20260830133041 | 72 | 245 | 5.0 | 14.0 | 0.00 | 0.00 | 0.00 | 71 | 1018.4 |
| 20260830132533 | 72 | 209 | 6.0 | 13.0 | 0.00 | 0.00 | 0.00 | 71 | 1018.3 |
| 20260830132033 | 72 | 201 | 5.0 | 14.0 | 0.00 | 0.00 | 0.00 | 71 | 1018.2 |
| 20260830131531 | 72 | 188 | 3.0 | 14.0 | 0.00 | 0.00 | 0.00 | 71 | 1018.2 |
| 20260830131031 | 72 | 205 | 6.0 | 13.0 | 0.00 | 0.00 | 0.00 | 71 | 1018.2 |
| 20260830130533 | 72 | 217 | 5.0 | 13.0 | 0.00 | 0.00 | 0.00 | 71 | 1018.2 |
| 20260830130030 | 72 | 233 | 4.0 | 11.0 | 0.00 | 0.00 | 0.00 | 71 | 1018.2 |
| 20260830125537 | 72 | 173 | 5.0 | 11.0 | 0.00 | 0.00 | 0.00 | 70 | 1018.3 |
| 20260830125037 | 72 | 206 | 4.0 | 12.0 | 0.00 | 0.00 | 0.00 | 71 | 1018.3 |
| 20260830124536 | 72 | 169 | 5.0 | 12.0 | 0.00 | 0.00 | 0.00 | 71 | 1018.3 |
| 20260830124037 | 72 | 169 | 4.0 | 12.0 | 0.00 | 0.00 | 0.00 | 70 | 1018.4 |
| 20260830123534 | 72 | 253 | 5.0 | 12.0 | 0.00 | 0.00 | 0.00 | 70 | 1018.4 |
| 20260830123035 | 72 | 355 | 6.0 | 12.0 | 0.00 | 0.00 | 0.00 | 70 | 1018.4 |
| 20260830122533 | 72 | 150 | 3.0 | 12.0 | 0.00 | 0.00 | 0.00 | 70 | 1018.3 |
| 20260830122033 | 72 | 240 | 4.0 | 11.0 | 0.00 | 0.00 | 0.00 | 70 | 1018.4 |
| 20260830121533 | 72 | 173 | 4.0 | 12.0 | 0.00 | 0.00 | 0.00 | 70 | 1018.3 |
| 20260830121031 | 72 | 193 | 5.0 | 12.0 | 0.00 | 0.00 | 0.00 | 70 | 1018.3 |
| 20260830120535 | 72 | 181 | 3.0 | 13.0 | 0.00 | 0.00 | 0.00 | 70 | 1018.3 |
| 20260830120031 | 72 | 192 | 4.0 | 13.0 | 0.00 | 0.00 | 0.00 | 70 | 1018.3 |
| 20260830115534 | 72 | 205 | 5.0 | 11.0 | 0.00 | 0.00 | 0.00 | 70 | 1018.3 |
| 20260830115030 | 72 | 195 | 5.0 | 12.0 | 0.00 | 0.00 | 0.00 | 70 | 1018.4 |
| 20260830114530 | 72 | 189 | 6.0 | 12.0 | 0.00 | 0.00 | 0.00 | 70 | 1018.3 |
| 20260830114031 | 72 | 226 | 5.0 | 11.0 | 0.00 | 0.00 | 0.00 | 69 | 1018.2 |
| 20260830113528 | 72 | 173 | 5.0 | 11.0 | 0.00 | 0.00 | 0.00 | 69 | 1018.2 |
| 20260830113032 | 72 | 163 | 4.0 | 11.0 | 0.00 | 0.00 | 0.00 | 69 | 1018.2 |
| 20260830112527 | 71 | 231 | 4.0 | 9.0 | 0.00 | 0.00 | 0.00 | 69 | 1018.2 |
| 20260830112029 | 71 | 166 | 4.0 | 9.0 | 0.00 | 0.00 | 0.00 | 69 | 1018.2 |
| 20260830111529 | 71 | 168 | 5.0 | 10.0 | 0.00 | 0.00 | 0.00 | 69 | 1018.2 |
| 20260830111027 | 71 | 228 | 5.0 | 10.0 | 0.00 | 0.00 | 0.00 | 69 | 1018.2 |
| 20260830110527 | 71 | 218 | 4.0 | 11.0 | 0.00 | 0.00 | 0.00 | 69 | 1018.2 |
| 20260830110026 | 71 | 218 | 4.0 | 11.0 | 0.00 | 0.00 | 0.00 | 69 | 1018.2 |
| 20260830105525 | 71 | 108 | 3.0 | 13.0 | 0.00 | 0.00 | 0.00 | 69 | 1018.1 |
| 20260830105025 | 71 | 166 | 6.0 | 13.0 | 0.00 | 0.00 | 0.00 | 69 | 1018.2 |
| 20260830104525 | 71 | 207 | 7.0 | 12.0 | 0.00 | 0.00 | 0.00 | 69 | 1018.3 |
| 20260830104025 | 71 | 170 | 5.0 | 10.0 | 0.00 | 0.00 | 0.00 | 69 | 1018.3 |
| 20260830103524 | 71 | 201 | 5.0 | 12.0 | 0.00 | 0.00 | 0.00 | 69 | 1018.3 |
| 20260830103026 | 71 | 189 | 5.0 | 12.0 | 0.00 | 0.00 | 0.00 | 69 | 1018.3 |
| 20260830102523 | 71 | 189 | 3.0 | 12.0 | 0.00 | 0.00 | 0.00 | 69 | 1018.4 |
| 20260830102022 | 71 | 185 | 4.0 | 11.0 | 0.00 | 0.00 | 0.00 | 69 | 1018.4 |
| 20260830101522 | 71 | 178 | 2.0 | 10.0 | 0.00 | 0.00 | 0.00 | 69 | 1018.5 |
| 20260830101022 | 71 | 252 | 4.0 | 9.0 | 0.00 | 0.00 | 0.00 | 68 | 1018.4 |
| 20260830100522 | 71 | 130 | 3.0 | 10.0 | 0.00 | 0.00 | 0.00 | 68 | 1018.4 |
| 20260830100027 | 71 | 140 | 2.0 | 10.0 | 0.00 | 0.00 | 0.00 | 68 | 1018.5 |
| 20260830095522 | 71 | 236 | 3.0 | 15.0 | 0.00 | 0.00 | 0.00 | 68 | 1018.5 |
| 20260830095022 | 71 | 218 | 5.0 | 15.0 | 0.00 | 0.00 | 0.00 | 68 | 1018.5 |
| 20260830094550 | 71 | 203 | 4.0 | 8.0 | 0.00 | 0.00 | 0.00 | 68 | 1018.6 |
| 20260830094024 | 71 | 173 | 3.0 | 8.0 | 0.00 | 0.00 | 0.00 | 68 | 1018.5 |
| 20260830093526 | 71 | 143 | 1.0 | 9.0 | 0.00 | 0.00 | 0.00 | 68 | 1018.5 |
| 20260830093020 | 71 | 173 | 2.0 | 9.0 | 0.00 | 0.00 | 0.00 | 67 | 1018.5 |
| 20260830092520 | 71 | 173 | 3.0 | 8.0 | 0.00 | 0.00 | 0.00 | 67 | 1018.5 |
| 20260830092023 | 71 | 159 | 3.0 | 9.0 | 0.00 | 0.00 | 0.00 | 67 | 1018.6 |
| 20260830091520 | 71 | 165 | 3.0 | 9.0 | 0.00 | 0.00 | 0.00 | 67 | 1018.7 |
| 20260830091021 | 71 | 130 | 3.0 | 9.0 | 0.00 | 0.00 | 0.00 | 68 | 1018.7 |
| 20260830090518 | 71 | 213 | 3.0 | 8.0 | 0.00 | 0.00 | 0.00 | 68 | 1018.7 |
| 20260830090038 | 71 | 173 | 3.0 | 6.0 | 0.00 | 0.00 | 0.00 | 68 | 1018.6 |
| 20260830085520 | 71 | 58 | 2.0 | 9.0 | 0.00 | 0.00 | 0.00 | 68 | 1018.5 |
| 20260830085018 | 71 | 138 | 3.0 | 11.0 | 0.00 | 0.00 | 0.00 | 68 | 1018.5 |
| 20260830084518 | 71 | 201 | 4.0 | 11.0 | 0.00 | 0.00 | 0.00 | 68 | 1018.4 |
| 20260830084019 | 71 | 218 | 5.0 | 10.0 | 0.00 | 0.00 | 0.00 | 68 | 1018.4 |
| 20260830083517 | 71 | 165 | 4.0 | 10.0 | 0.00 | 0.00 | 0.00 | 68 | 1018.4 |
| 20260830083016 | 71 | 178 | 4.0 | 10.0 | 0.00 | 0.00 | 0.00 | 68 | 1018.6 |